SCP
0 0 0 0 0 0 0 -0 0 0 0 0 0 0 0 0 0 0 0 0 -0 0 0 0 0 0 0 0 0 0 0 0 0 0 0 0 0 0 0 0 0 0 0 0
0 0 0 0 0 0 0 0 0 0 0 0 0 0 -0 0 0 0 0 0 0 0 0 0 0 0 0 0 0 0 0 0 0 0 0 0 0 0 0 0 0 0 0 0
0 0 0 0 0 0 0 0 -0 0 0 0 0 0 -0 -0 0 0 0 0 0 0 0 0 0 0 0 0 0 0 0 0 0 0 0 0 0 0 0 0 0 0 0 0
0 0 0 0 0 0 0 0 0 0 0 0 0 0 0 0 0 0 0 0 0 0 0 0 0 0 0 0 0 0 0 0 -0 0 0 0 0 0 0 0 0 0 0 0
0 0 0 0 0 0 0 0 0 0 0 0 0 0 0 0 0 0 0 0 0 0 0 0 0 0 0 0 0 0 0 0 0 0 0 0 0 0 0 0 0 0 0 0
0 0 0 0 0 0 0 0 0 0 0 0 0 0 0 0 0 -0 0 0 0 0 0 0 0 0 0 0 0 0 0 0 0 0 0 0 0 0 0 0 0 0 0 0
0 0 0 0 0 0 0 0 0 0 0 0 0 0 0 0 0 -0 0 0 0 0 0 0 0 0 0 0 0 0 0 0 0 0 0 0 0 0 0 0 0 0 0 0
0 0 0 -0 -0 0 0 0 0 0 0 0 -0 0 0 0 0 0 -0 -0 -0 0 0 0 0 0 0 0 0 0 0 0 0 0 0 0 0 0 0 0 0 0 0 0
0 0 0 0 0 0 0 -0 0 0 -0 -0 0 0 0 0 0 0 0 0 -0 -0 0 0 0 0 0 0 0 0 0 0 0 0 0 0 0 0 0 0 0 0 0 0
0 0 0 0 0 0 -0 -0 0 0 -0 0 -0 0 0 0 0 0 0 0 0 0 0 0 0 0 0 0 0 0 0 0 0 0 0 0 0 0 0 0 0 0 0 0
-0 -0 -0 -0 -0 -0 -0 -0 -0 0 -0 0 -0 0 0 0 0 0 0 0 0 0 0 0 0 0 0 0 0 0 0 0 0 0 0 0 0 0 0 0 0 0 0 0
-0 -0 -0 -0 -0 -0 -0 -0 0 0 -0 0 0 0 -0 0 0 0 0 0 0 0 0 0 0 0 0 0 0 0 0 0 0 0 0 0 0 0 0 0 0 0 0 0
-0 -0 -0 -0 -0 -0 -0 -0 -0 -0 0 0 0 0 0 0 0 -0 0 0 0 0 0 0 0 0 0 0 0 0 0 0 0 0 0 0 0 0 0 0 0 0 0 0
-0 -0 -0 -0 -0 -0 0 -0 -0 0 0 0 0 0 0 -0 0 0 0 0 0 0 0 0 0 0 0 0 0 0 0 0 0 0 0 0 0 0 0 0 0 0 0 0
-0 -0 -0 -0 -0 -0 -0 0 -0 -0 0 0 0 0 0 0 0 0 0 0 0 0 0 0 0 0 0 0 0 0 0 0 0 0 0 0 0 0 0 0 0 0 0 0
-0 -0 -0 -0 -0 -0 -0 -0 0 0 0 0 0 0 0 0 -0 0 0 0 0 0 0 0 0 0 0 0 0 0 0 0 0 0 0 0 0 0 0 0 0 0 0 0
-0 -0 -0 -0 -0 -0 -0 0 -0 0 0 0 0 0 0 0 0 0 0 0 0 0 0 0 0 0 0 0 0 0 0 0 0 0 0 0 0 0 0 0 0 0 0 0
-0 -0 -0 -0 -0 0 0 0 0 0 0 0 0 0 0 0 0 0 0 0 0 0 0 0 0 0 0 0 0 0 0 0 0 0 0 0 0 0 0 0 0 0 0 0
-0 -0 -0 -0 0 0 0 0 0 0 0 0 0 0 0 0 0 0 0 0 0 0 0 0 0 0 0 0 0 0 0 0 0 0 0 0 0 0 0 0 0 0 0 0
-0 0 -0 -0 0 -0 0 0 0 0 0 0 0 0 0 0 0 0 0 0 0 0 0 0 0 0 0 0 0 0 0 0 0 -0 0 0 -0 0 0 0 0 0 0 0
-0 -0 -0 0 -0 0 0 0 0 0 0 0 0 0 0 0 0 -0 0 -0 0 0 0 0 0 0 0 0 -0 -0 0 0 0 0 0 -0 -0 0 0 0 0 0 0 0
0 0 -0 -0 0 -0 0 0 0 0 0 0 0 0 0 0 0 0 0 0 0 0 -0 0 0 0 0 0 0 0 0 0 -0 -0 -0 -0 -0 0 0 0 0 0 0 0
-0 0 -0 0 0 0 0 0 0 0 0 0 0 0 0 0 0 0 0 0 0 0 0 0 0 0 0 0 -0 -0 -0 -0 -0 -0 -0 -0 -0 0 0 -0 -0 -0 -0 0
0 0 0 0 0 0 0 0 0 0 0 0 0 0 -0 0 0 0 0 0 0 0 0 0 0 0 0 -0 -0 -0 -0 -0 -0 -0 -0 -0 -0 -0 -0 -0 -0 -0 -0 -0
0 0 0 0 0 0 -0 -0 0 0 0 0 0 -0 0 -0 -0 0 -0 0 0 0 0 0 0 0 0 -0 -0 -0 -0 -0 -0 -0 -0 -0 -0 -0 -0 -0 -0 -0 -0 -0
0 0 0 0 0 0 0 0 0 0 -0 -0 -0 0 0 -0 -0 -0 -0 0 0 0 0 0 0 0 0 -0 -0 -0 -0 -0 -0 -0 -0 -0 -0 -0 -0 -0 -0 -0 -0 -0
0 0 0 0 0 0 0 0 -0 -0 -0 0 -0 0 0 -0 0 0 0 0 0 -0 0 0 0 0 0 0 -0 -0 -0 -0 -0 -0 -0 -0 -0 -0 -0 -0 -0 -0 -0 -0
Wind_Speed_500mb
50 50 49 54 63 63 54 24 12 2 20 5 10 21 18 22 18 27 19 11 19 23 26 8 9 6 1 4 23 26 7 5 11 1 4 3 3 5 9 11 12 3 2 7
52 52 51 51 51 50 49 35 20 13 10 7 9 23 28 17 22 30 25 19 3 13 13 8 10 6 10 3 8 18 11 3 1 6 6 2 9 7 9 10 4 16 15 8
53 52 50 44 39 37 40 15 10 13 8 12 20 18 16 24 19 19 19 6 5 10 11 3 15 15 5 8 10 25 23 4 10 14 5 4 9 14 15 16 10 15 18 15
49 49 47 45 35 30 29 6 7 10 11 13 26 26 15 7 8 4 5 1 10 21 10 5 11 10 14 6 6 11 12 19 28 19 23 7 5 13 13 15 14 14 12 15
43 43 43 42 42 31 19 9 7 12 24 25 23 13 8 11 2 7 12 5 11 22 12 12 22 13 5 6 7 7 1 9 8 7 4 2 7 12 16 20 18 17 17 24
43 41 39 36 31 32 17 16 26 26 14 14 13 9 17 20 4 7 18 9 5 23 16 3 11 26 18 13 7 6 5 11 6 7 3 1 16 26 29 25 22 24 28 27
50 44 42 36 28 26 32 37 36 11 9 13 13 26 24 22 15 12 11 29 8 4 23 7 7 29 24 21 18 10 11 10 4 6 8 8 7 9 12 12 16 19 22 23
50 45 40 37 32 30 32 36 28 9 7 7 26 23 20 17 8 8 11 14 10 20 11 4 5 6 6 11 12 10 6 8 7 6 10 13 1 3 4 8 7 5 12 10
43 45 44 34 34 31 35 36 28 21 9 7 18 21 8 5 4 4 8 7 24 7 4 3 4 4 7 7 7 8 9 10 6 7 6 7 7 6 4 5 6 10 19 23
46 41 43 41 37 36 33 39 24 16 13 20 8 7 9 8 5 3 8 8 4 4 3 3 3 5 3 12 14 13 9 6 9 5 6 6 4 6 5 7 6 18 17 21
44 41 42 41 40 38 33 38 30 20 11 34 22 26 22 17 6 4 4 7 2 2 4 1 3 3 4 6 15 15 12 12 7 7 7 8 1 3 6 7 16 23 25 21
39 40 45 44 40 36 32 38 25 23 20 25 38 33 30 28 18 8 9 3 1 3 5 2 3 3 1 3 9 3 8 6 10 10 4 3 5 3 7 13 27 24 29 25
40 42 50 46 36 37 35 35 25 26 17 21 14 11 17 13 28 29 7 2 2 4 5 4 3 4 1 4 5 2 5 8 4 9 6 2 2 8 12 23 33 31 20 13
41 42 45 43 39 34 32 25 19 21 9 6 7 10 10 10 10 22 33 9 6 11 7 4 3 3 2 3 3 2 2 17 8 2 7 4 10 11 23 33 32 21 21 19
41 41 43 40 39 29 31 29 28 24 14 6 14 23 10 4 7 13 20 18 13 7 4 4 3 4 4 4 0 7 9 9 7 2 10 7 5 26 29 32 27 28 21 19
38 42 42 36 31 32 35 8 14 10 24 6 5 8 8 14 13 19 20 8 7 7 5 5 4 3 2 3 4 8 14 13 10 3 4 10 10 27 26 32 34 25 21 19
38 42 39 34 30 28 19 11 14 12 20 5 5 5 5 23 18 18 23 16 12 6 5 4 3 3 1 2 6 4 15 9 6 16 23 18 27 20 30 34 33 25 24 25
40 42 35 28 19 11 12 20 2 3 6 4 3 3 0 6 8 4 6 6 6 6 4 3 3 4 2 7 18 21 17 7 5 21 13 15 25 37 36 35 31 25 24 20
36 29 16 10 12 10 15 10 14 15 4 1 3 4 4 4 7 7 6 5 3 3 0 2 4 4 8 10 10 8 7 10 7 15 17 25 34 37 38 33 24 22 21 16
30 19 9 8 16 19 15 4 4 5 5 6 3 5 3 7 5 3 2 3 3 1 2 5 4 6 25 21 12 2 14 15 26 34 26 36 40 39 31 24 18 19 20 19
24 18 7 19 14 10 6 4 4 5 2 5 5 6 4 8 3 3 4 2 2 3 4 3 1 5 4 4 16 18 6 11 15 7 20 24 38 36 30 20 19 21 21 18
21 19 16 13 8 5 4 3 1 3 5 1 3 4 4 7 5 2 2 3 1 3 7 3 4 3 9 7 18 21 31 27 22 21 36 43 38 28 26 25 23 21 20 18
11 7 7 7 5 2 6 6 3 3 5 3 3 4 3 2 7 3 2 2 0 4 4 3 4 13 8 18 31 31 36 19 28 39 43 34 36 28 23 27 24 24 22 18
7 9 8 2 3 1 2 2 3 7 5 6 7 5 7 6 2 3 1 1 2 3 4 4 3 3 16 27 39 36 34 28 41 42 44 39 34 33 33 30 28 26 25 20
5 6 6 4 6 8 16 14 9 9 3 15 8 6 4 1 2 3 1 2 5 5 1 3 3 16 27 40 30 34 41 44 46 43 39 39 43 43 40 34 31 29 28 24
4 4 8 11 12 7 11 5 4 4 16 7 5 3 3 4 3 6 8 4 6 2 2 3 16 35 35 32 35 42 44 45 42 38 43 44 40 37 35 30 25 24 24 24
5 7 15 20 15 12 10 11 4 6 3 1 2 4 2 4 4 5 6 5 5 16 24 20 36 41 39 27 43 45 44 40 39 42 42 41 34 29 25 24 21 18 19 22
Wind_Direction_500mb
336 328 325 325 331 337 347 337 311 30 122 254 232 240 234 235 250 252 265 256 228 193 281 227 328 203 292 349 147 165 162 164 223 238 354 335 108 154 182 225 200 166 305 221
340 340 338 332 339 341 341 325 287 0 226 262 294 303 266 279 288 293 262 235 205 149 190 207 222 274 344 160 117 147 155 19 96 204 194 251 219 146 98 89 95 215 229 231
341 341 337 334 338 338 339 321 312 308 306 335 345 327 288 233 283 309 297 252 139 44 141 72 206 187 349 347 89 102 81 90 178 198 357 271 202 193 182 197 227 242 235 238
338 341 344 344 335 331 336 257 265 291 312 332 315 293 293 321 297 247 304 219 245 154 33 81 226 151 138 94 127 86 153 176 195 196 200 188 160 178 173 200 223 226 255 219
333 332 335 340 338 327 325 270 285 335 292 295 317 303 305 315 325 312 326 316 133 112 119 264 288 132 160 140 99 104 181 120 153 131 109 207 224 204 212 225 234 248 245 252
330 328 333 331 341 334 315 298 312 308 276 286 300 300 341 320 323 214 59 348 119 124 127 3 321 79 79 98 108 111 88 131 134 201 51 296 264 244 235 234 231 243 251 258
332 327 321 322 327 318 315 299 308 292 289 286 293 303 311 307 317 262 67 35 346 62 112 120 308 63 63 65 56 46 123 107 83 124 139 222 53 305 279 261 255 240 254 251
332 330 322 312 322 319 311 315 300 281 278 294 294 299 305 308 40 40 133 204 209 166 162 220 175 77 108 55 35 45 42 112 118 175 200 322 123 83 133 185 182 267 258 159
333 334 329 315 317 321 320 307 313 280 288 231 311 322 309 345 59 12 23 34 139 162 287 194 152 135 118 123 93 59 75 93 101 159 193 216 108 39 346 216 233 116 138 131
325 334 331 326 318 321 314 310 323 290 286 283 290 285 343 5 66 63 332 332 37 167 171 78 109 118 116 154 149 157 152 156 165 152 227 265 276 297 292 209 69 135 129 121
318 325 329 327 321 316 313 302 303 281 258 290 279 292 308 325 329 328 145 210 171 350 74 116 108 123 105 155 142 161 156 161 167 162 196 254 89 224 235 80 110 126 117 107
317 318 320 323 325 323 315 312 298 305 267 264 289 292 274 276 268 327 341 19 27 80 90 60 110 128 66 69 158 165 150 179 172 185 173 15 327 355 101 123 127 112 105 99
317 315 318 333 322 324 310 301 287 290 277 296 287 298 289 297 247 240 257 251 125 76 98 119 116 108 266 153 106 64 120 144 114 162 113 339 351 92 118 128 124 118 99 99
321 321 326 328 323 318 314 306 281 286 277 277 294 258 344 318 299 220 214 265 172 128 76 77 83 99 242 82 51 295 349 158 162 219 218 224 195 143 133 130 132 120 116 107
324 328 329 329 328 323 315 296 279 241 256 315 293 316 7 19 38 152 168 182 147 101 82 63 87 86 166 85 232 238 204 163 183 134 166 167 89 161 148 140 129 124 114 102
331 327 330 326 328 329 337 313 55 208 212 281 298 333 353 140 134 153 149 157 87 76 75 71 93 73 21 146 224 254 222 217 223 157 165 164 122 150 157 145 139 124 111 102
324 327 328 326 327 319 314 288 289 66 186 248 290 335 87 120 112 97 96 111 88 99 79 62 57 109 70 178 243 133 100 120 228 205 134 115 153 148 148 150 137 124 111 105
323 322 320 322 338 12 34 2 343 43 177 242 304 325 225 103 107 84 56 69 58 58 96 127 198 146 166 251 243 266 276 299 68 149 129 128 158 146 143 146 135 124 122 117
330 334 335 354 2 8 352 2 25 157 58 320 346 349 93 114 71 85 79 91 95 42 54 223 167 179 230 240 267 269 185 206 159 136 149 135 140 141 139 138 132 130 134 125
344 353 15 12 357 333 336 358 34 38 37 24 40 328 49 28 74 64 103 22 89 193 173 131 217 255 264 257 255 321 127 127 142 120 118 129 134 137 133 125 126 134 135 127
2 350 339 335 335 352 355 12 25 358 81 25 24 21 43 40 62 97 24 98 93 307 104 268 245 261 256 46 209 228 164 132 185 229 166 149 153 138 140 132 128 132 131 127
332 328 317 335 354 343 3 16 19 32 38 13 18 63 53 35 47 85 63 37 305 357 135 231 246 248 307 264 156 151 151 141 112 117 132 134 135 141 136 129 127 130 134 126
335 333 322 345 337 329 18 20 51 28 359 168 146 86 43 96 44 79 101 269 16 156 248 263 280 315 8 143 136 130 143 133 134 129 133 136 131 126 129 128 124 127 123 115
352 350 321 339 314 289 298 277 307 298 264 164 126 78 36 39 39 33 274 62 264 242 227 249 313 37 121 131 125 118 134 147 136 134 133 129 126 123 121 114 111 112 108 104
337 323 304 281 286 281 293 273 275 268 187 149 124 112 127 144 164 256 312 229 251 253 264 354 51 144 142 137 141 145 138 134 133 134 134 134 130 127 119 111 106 100 93 88
300 273 275 289 308 320 341 297 168 125 141 110 111 148 188 180 188 193 202 224 233 273 87 62 132 150 138 131 142 139 139 139 138 139 139 138 133 130 126 120 111 97 84 75
287 278 287 289 285 284 298 333 72 147 130 113 167 206 50 112 209 222 204 227 354 313 257 179 147 142 139 153 139 140 140 139 138 138 136 135 136 140 143 139 131 109 87 73
Wind_Speed_850mb
50 50 49 54 63 63 54 24 12 2 20 5 10 21 18 22 18 27 19 11 19 23 26 8 9 6 1 4 23 26 7 5 11 1 4 3 3 5 9 11 12 3 2 7
52 52 51 51 51 50 49 35 20 13 10 7 9 23 28 17 22 30 25 19 3 13 13 8 10 6 10 3 8 18 11 3 1 6 6 2 9 7 9 10 4 16 15 8
53 52 50 44 39 37 40 15 10 13 8 12 20 18 16 24 19 19 19 6 5 10 11 3 15 15 5 8 10 25 23 4 10 14 5 4 9 14 15 16 10 15 18 15
49 49 47 45 35 30 29 6 7 10 11 13 26 26 15 7 8 4 5 1 10 21 10 5 11 10 14 6 6 11 12 19 28 19 23 7 5 13 13 15 14 14 12 15
43 43 43 42 42 31 19 9 7 12 24 25 23 13 8 11 2 7 12 5 11 22 12 12 22 13 5 6 7 7 1 9 8 7 4 2 7 12 16 20 18 17 17 24
43 41 39 36 31 32 17 16 26 26 14 14 13 9 17 20 4 7 18 9 5 23 16 3 11 26 18 13 7 6 5 11 6 7 3 1 16 26 29 25 22 24 28 27
50 44 42 36 28 26 32 37 36 11 9 13 13 26 24 22 15 12 11 29 8 4 23 7 7 29 24 21 18 10 11 10 4 6 8 8 7 9 12 12 16 19 22 23
50 45 40 37 32 30 32 36 28 9 7 7 26 23 20 17 8 8 11 14 10 20 11 4 5 6 6 11 12 10 6 8 7 6 10 13 1 3 4 8 7 5 12 10
43 45 44 34 34 31 35 36 28 21 9 7 18 21 8 5 4 4 8 7 24 7 4 3 4 4 7 7 7 8 9 10 6 7 6 7 7 6 4 5 6 10 19 23
46 41 43 41 37 36 33 39 24 16 13 20 8 7 9 8 5 3 8 8 4 4 3 3 3 5 3 12 14 13 9 6 9 5 6 6 4 6 5 7 6 18 17 21
44 41 42 41 40 38 33 38 30 20 11 34 22 26 22 17 6 4 4 7 2 2 4 1 3 3 4 6 15 15 12 12 7 7 7 8 1 3 6 7 16 23 25 21
39 40 45 44 40 36 32 38 25 23 20 25 38 33 30 28 18 8 9 3 1 3 5 2 3 3 1 3 9 3 8 6 10 10 4 3 5 3 7 13 27 24 29 25
40 42 50 46 36 37 35 35 25 26 17 21 14 11 17 13 28 29 7 2 2 4 5 4 3 4 1 4 5 2 5 8 4 9 6 2 2 8 12 23 33 31 20 13
41 42 45 43 39 34 32 25 19 21 9 6 7 10 10 10 10 22 33 9 6 11 7 4 3 3 2 3 3 2 2 17 8 2 7 4 10 11 23 33 32 21 21 19
41 41 43 40 39 29 31 29 28 24 14 6 14 23 10 4 7 13 20 18 13 7 4 4 3 4 4 4 0 7 9 9 7 2 10 7 5 26 29 32 27 28 21 19
38 42 42 36 31 32 35 8 14 10 24 6 5 8 8 14 13 19 20 8 7 7 5 5 4 3 2 3 4 8 14 13 10 3 4 10 10 27 26 32 34 25 21 19
38 42 39 34 30 28 19 11 14 12 20 5 5 5 5 23 18 18 23 16 12 6 5 4 3 3 1 2 6 4 15 9 6 16 23 18 27 20 30 34 33 25 24 25
40 42 35 28 19 11 12 20 2 3 6 4 3 3 0 6 8 4 6 6 6 6 4 3 3 4 2 7 18 21 17 7 5 21 13 15 25 37 36 35 31 25 24 20
36 29 16 10 12 10 15 10 14 15 4 1 3 4 4 4 7 7 6 5 3 3 0 2 4 4 8 10 10 8 7 10 7 15 17 25 34 37 38 33 24 22 21 16
30 19 9 8 16 19 15 4 4 5 5 6 3 5 3 7 5 3 2 3 3 1 2 5 4 6 25 21 12 2 14 15 26 34 26 36 40 39 31 24 18 19 20 19
24 18 7 19 14 10 6 4 4 5 2 5 5 6 4 8 3 3 4 2 2 3 4 3 1 5 4 4 16 18 6 11 15 7 20 24 38 36 30 20 19 21 21 18
21 19 16 13 8 5 4 3 1 3 5 1 3 4 4 7 5 2 2 3 1 3 7 3 4 3 9 7 18 21 31 27 22 21 36 43 38 28 26 25 23 21 20 18
11 7 7 7 5 2 6 6 3 3 5 3 3 4 3 2 7 3 2 2 0 4 4 3 4 13 8 18 31 31 36 19 28 39 43 34 36 28 23 27 24 24 22 18
7 9 8 2 3 1 2 2 3 7 5 6 7 5 7 6 2 3 1 1 2 3 4 4 3 3 16 27 39 36 34 28 41 42 44 39 34 33 33 30 28 26 25 20
5 6 6 4 6 8 16 14 9 9 3 15 8 6 4 1 2 3 1 2 5 5 1 3 3 16 27 40 30 34 41 44 46 43 39 39 43 43 40 34 31 29 28 24
4 4 8 11 12 7 11 5 4 4 16 7 5 3 3 4 3 6 8 4 6 2 2 3 16 35 35 32 35 42 44 45 42 38 43 44 40 37 35 30 25 24 24 24
5 7 15 20 15 12 10 11 4 6 3 1 2 4 2 4 4 5 6 5 5 16 24 20 36 41 39 27 43 45 44 40 39 42 42 41 34 29 25 24 21 18 19 22
Wind_Direction_850mb
336 328 325 325 331 337 347 337 311 30 122 254 232 240 234 235 250 252 265 256 228 193 281 227 328 203 292 349 147 165 162 164 223 238 354 335 108 154 182 225 200 166 305 221
340 340 338 332 339 341 341 325 287 0 226 262 294 303 266 279 288 293 262 235 205 149 190 207 222 274 344 160 117 147 155 19 96 204 194 251 219 146 98 89 95 215 229 231
341 341 337 334 338 338 339 321 312 308 306 335 345 327 288 233 283 309 297 252 139 44 141 72 206 187 349 347 89 102 81 90 178 198 357 271 202 193 182 197 227 242 235 238
338 341 344 344 335 331 336 257 265 291 312 332 315 293 293 321 297 247 304 219 245 154 33 81 226 151 138 94 127 86 153 176 195 196 200 188 160 178 173 200 223 226 255 219
333 332 335 340 338 327 325 270 285 335 292 295 317 303 305 315 325 312 326 316 133 112 119 264 288 132 160 140 99 104 181 120 153 131 109 207 224 204 212 225 234 248 245 252
330 328 333 331 341 334 315 298 312 308 276 286 300 300 341 320 323 214 59 348 119 124 127 3 321 79 79 98 108 111 88 131 134 201 51 296 264 244 235 234 231 243 251 258
332 327 321 322 327 318 315 299 308 292 289 286 293 303 311 307 317 262 67 35 346 62 112 120 308 63 63 65 56 46 123 107 83 124 139 222 53 305 279 261 255 240 254 251
332 330 322 312 322 319 311 315 300 281 278 294 294 299 305 308 40 40 133 204 209 166 162 220 175 77 108 55 35 45 42 112 118 175 200 322 123 83 133 185 182 267 258 159
333 334 329 315 317 321 320 307 313 280 288 231 311 322 309 345 59 12 23 34 139 162 287 194 152 135 118 123 93 59 75 93 101 159 193 216 108 39 346 216 233 116 138 131
325 334 331 326 318 321 314 310 323 290 286 283 290 285 343 5 66 63 332 332 37 167 171 78 109 118 116 154 149 157 152 156 165 152 227 265 276 297 292 209 69 135 129 121
318 325 329 327 321 316 313 302 303 281 258 290 279 292 308 325 329 328 145 210 171 350 74 116 108 123 105 155 142 161 156 161 167 162 196 254 89 224 235 80 110 126 117 107
317 318 320 323 325 323 315 312 298 305 267 264 289 292 274 276 268 327 341 19 27 80 90 60 110 128 66 69 158 165 150 179 172 185 173 15 327 355 101 123 127 112 105 99
317 315 318 333 322 324 310 301 287 290 277 296 287 298 289 297 247 240 257 251 125 76 98 119 116 108 266 153 106 64 120 144 114 162 113 339 351 92 118 128 124 118 99 99
321 321 326 328 323 318 314 306 281 286 277 277 294 258 344 318 299 220 214 265 172 128 76 77 83 99 242 82 51 295 349 158 162 219 218 224 195 143 133 130 132 120 116 107
324 328 329 329 328 323 315 296 279 241 256 315 293 316 7 19 38 152 168 182 147 101 82 63 87 86 166 85 232 238 204 163 183 134 166 167 89 161 148 140 129 124 114 102
331 327 330 326 328 329 337 313 55 208 212 281 298 333 353 140 134 153 149 157 87 76 75 71 93 73 21 146 224 254 222 217 223 157 165 164 122 150 157 145 139 124 111 102
324 327 328 326 327 319 314 288 289 66 186 248 290 335 87 120 112 97 96 111 88 99 79 62 57 109 70 178 243 133 100 120 228 205 134 115 153 148 148 150 137 124 111 105
323 322 320 322 338 12 34 2 343 43 177 242 304 325 225 103 107 84 56 69 58 58 96 127 198 146 166 251 243 266 276 299 68 149 129 128 158 146 143 146 135 124 122 117
330 334 335 354 2 8 352 2 25 157 58 320 346 349 93 114 71 85 79 91 95 42 54 223 167 179 230 240 267 269 185 206 159 136 149 135 140 141 139 138 132 130 134 125
344 353 15 12 357 333 336 358 34 38 37 24 40 328 49 28 74 64 103 22 89 193 173 131 217 255 264 257 255 321 127 127 142 120 118 129 134 137 133 125 126 134 135 127
2 350 339 335 335 352 355 12 25 358 81 25 24 21 43 40 62 97 24 98 93 307 104 268 245 261 256 46 209 228 164 132 185 229 166 149 153 138 140 132 128 132 131 127
332 328 317 335 354 343 3 16 19 32 38 13 18 63 53 35 47 85 63 37 305 357 135 231 246 248 307 264 156 151 151 141 112 117 132 134 135 141 136 129 127 130 134 126
335 333 322 345 337 329 18 20 51 28 359 168 146 86 43 96 44 79 101 269 16 156 248 263 280 315 8 143 136 130 143 133 134 129 133 136 131 126 129 128 124 127 123 115
352 350 321 339 314 289 298 277 307 298 264 164 126 78 36 39 39 33 274 62 264 242 227 249 313 37 121 131 125 118 134 147 136 134 133 129 126 123 121 114 111 112 108 104
337 323 304 281 286 281 293 273 275 268 187 149 124 112 127 144 164 256 312 229 251 253 264 354 51 144 142 137 141 145 138 134 133 134 134 134 130 127 119 111 106 100 93 88
300 273 275 289 308 320 341 297 168 125 141 110 111 148 188 180 188 193 202 224 233 273 87 62 132 150 138 131 142 139 139 139 138 139 139 138 133 130 126 120 111 97 84 75
287 278 287 289 285 284 298 333 72 147 130 113 167 206 50 112 209 222 204 227 354 313 257 179 147 142 139 153 139 140 140 139 138 138 136 135 136 140 143 139 131 109 87 73